Location: ?
(35.4064°N, 139.3593°E)
Time: 14:48:17
(UTC+00:00)

Hubble Space Telescope - Pass Details

Date: 29 June 2024
Orbit: 509 x 513 km, 28.5° (Epoch: 23 July)

Event Time Altitude Azimuth Distance (km) Brightness Sun altitude
Exits shadow 18:09:09 21° 196° (SSW) 1,175 2.0 -14.3°
Maximum altitude 18:10:16 24° 170° (S) 1,079 2.0 -14.1°
Drops below altitude 10° 18:13:30 10° 115° (ESE) 1,719 3.6 -13.6°
Sets 18:16:01 0° 101° (E) 2,603 4.8 -13.2°
